,,,PA_Meas_PMT16A,,PR_Meas_QMR101_102,,RH_Meas_QMH101,,SR_Meas_QMS101,,TA_Meas_QMH101,,GenWind,,GenWind,
date,time,status,PA,status,PR,status,RH,status,SR,status,TA,status,DirAvg,status,SpdAvg,
2011-11-06, 00:00:04,VALID,1007.454,VALID,0.0,VALID,70.683,VALID,268.06,VALID,28.801,VALID,332.0,VALID,0.884,
2011-11-06, 00:01:04,VALID,1007.448,VALID,0.0,VALID,68.388,VALID,265.481,VALID,28.781,VALID,327.0,VALID,0.408,
2011-11-06, 00:02:04,VALID,1007.439,VALID,0.0,VALID,69.295,VALID,265.257,VALID,28.801,VALID,329.0,VALID,0.664,
2011-11-06, 00:03:04,VALID,1007.433,VALID,0.0,VALID,66.863,VALID,266.154,VALID,28.781,VALID,330.0,VALID,0.67,
2011-11-06, 00:04:04,VALID,1007.439,VALID,0.0,VALID,68.777,VALID,266.49,VALID,28.762,VALID,341.0,VALID,0.418,
2011-11-06, 00:05:04,VALID,1007.452,VALID,0.0,VALID,68.922,VALID,262.454,VALID,28.74,VALID,341.0,VALID,0.57,
2011-11-06, 00:06:04,VALID,1007.439,VALID,0.0,VALID,70.126,VALID,250.122,VALID,28.76,VALID,342.0,VALID,0.471,
2011-11-06, 00:07:04,VALID,1007.382,VALID,0.0,VALID,69.562,VALID,235.099,VALID,28.779,VALID,354.0,VALID,0.398,
2011-11-06, 00:08:04,VALID,1007.417,VALID,0.0,VALID,71.659,VALID,227.475,VALID,28.84,VALID,354.0,VALID,0.456,
2011-11-06, 00:09:04,VALID,1007.419,VALID,0.0,VALID,73.108,VALID,223.552,VALID,28.857,VALID,1.0,VALID,0.6,
2011-11-06, 00:10:04,VALID,1007.408,VALID,0.0,VALID,70.05,VALID,224.673,VALID,28.82,VALID,16.0,VALID,0.595,
2011-11-06, 00:11:04,VALID,1007.397,VALID,0.0,VALID,69.814,VALID,230.054,VALID,28.82,VALID,14.0,VALID,0.192,
2011-11-06, 00:12:04,VALID,1007.4,VALID,0.0,VALID,68.51,VALID,235.884,VALID,28.82,VALID,11.0,VALID,0.652,
2011-11-06, 00:13:04,VALID,1007.42,VALID,0.0,VALID,69.166,VALID,239.584,VALID,28.779,VALID,11.0,VALID,0.534,
2011-11-06, 00:14:04,VALID,1007.385,VALID,0.0,VALID,70.096,VALID,245.301,VALID,28.801,VALID,7.0,VALID,0.671,
2011-11-06, 00:15:04,VALID,1007.358,VALID,0.0,VALID,70.454,VALID,256.176,VALID,28.779,VALID,1.0,VALID,0.567,
2011-11-06, 00:16:04,VALID,1007.39,VALID,0.0,VALID,68.845,VALID,259.203,VALID,28.801,VALID,54.0,VALID,0.385,
2011-11-06, 00:17:04,VALID,1007.361,VALID,0.0,VALID,69.57,VALID,261.333,VALID,28.82,VALID,38.0,VALID,0.675,
2011-11-06, 00:18:04,VALID,1007.373,VALID,0.0,VALID,68.113,VALID,266.603,VALID,28.779,VALID,30.0,VALID,1.185,
2011-11-06, 00:19:04,VALID,1007.357,VALID,0.0,VALID,68.746,VALID,277.814,VALID,28.781,VALID,29.0,VALID,0.486,
2011-11-06, 00:20:04,VALID,1007.34,VALID,0.0,VALID,68.517,VALID,284.092,VALID,28.781,VALID,42.0,VALID,0.986,
2011-11-06, 00:21:04,VALID,1007.323,VALID,0.0,VALID,68.937,VALID,287.343,VALID,28.762,VALID,33.0,VALID,0.635,
2011-11-06, 00:22:04,VALID,1007.33,VALID,0.0,VALID,70.172,VALID,289.137,VALID,28.781,VALID,51.0,VALID,1.157,
2011-11-06, 00:23:04,VALID,1007.3,VALID,0.0,VALID,71.461,VALID,290.37,VALID,28.721,VALID,49.0,VALID,0.79,
2011-11-06, 00:24:04,VALID,1007.276,VALID,0.0,VALID,70.5,VALID,290.034,VALID,28.723,VALID,68.0,VALID,0.812,
2011-11-06, 00:25:04,VALID,1007.254,VALID,0.0,VALID,68.54,VALID,282.859,VALID,28.742,VALID,47.0,VALID,1.132,
2011-11-06, 00:26:04,VALID,1007.268,VALID,0.0,VALID,69.059,VALID,281.626,VALID,28.762,VALID,48.0,VALID,0.431,
2011-11-06, 00:27:04,VALID,1007.259,VALID,0.0,VALID,70.561,VALID,283.868,VALID,28.781,VALID,26.0,VALID,0.473,
2011-11-06, 00:28:04,VALID,1007.245,VALID,0.0,VALID,69.959,VALID,277.253,VALID,28.838,VALID,28.0,VALID,0.599,
2011-11-06, 00:29:04,VALID,1007.234,VALID,0.0,VALID,68.296,VALID,275.796,VALID,28.857,VALID,51.0,VALID,0.464,
2011-11-06, 00:30:04,VALID,1007.223,VALID,0.0,VALID,70.172,VALID,285.998,VALID,28.896,VALID,46.0,VALID,0.835,
2011-11-06, 00:31:04,VALID,1007.202,VALID,0.0,VALID,67.374,VALID,277.814,VALID,28.916,VALID,43.0,VALID,0.566,
2011-11-06, 00:32:04,VALID,1007.185,VALID,0.0,VALID,69.432,VALID,275.796,VALID,28.918,VALID,44.0,VALID,0.705,
2011-11-06, 00:33:04,VALID,1007.191,VALID,0.0,VALID,70.256,VALID,271.76,VALID,28.957,VALID,54.0,VALID,0.573,
2011-11-06, 00:34:04,VALID,1007.143,VALID,0.0,VALID,66.908,VALID,265.594,VALID,28.918,VALID,75.0,VALID,0.768,
2011-11-06, 00:35:04,VALID,1007.2,VALID,0.0,VALID,71.941,VALID,260.548,VALID,28.918,VALID,67.0,VALID,0.63,
2011-11-06, 00:36:04,VALID,1007.185,VALID,0.0,VALID,71.019,VALID,256.064,VALID,28.977,VALID,42.0,VALID,0.495,
2011-11-06, 00:37:04,VALID,1007.189,VALID,0.0,VALID,69.715,VALID,247.88,VALID,28.974,VALID,58.0,VALID,0.624,
2011-11-06, 00:38:04,VALID,1007.191,VALID,0.0,VALID,69.371,VALID,239.471,VALID,29.016,VALID,56.0,VALID,0.672,
2011-11-06, 00:39:04,VALID,1007.178,VALID,0.0,VALID,68.777,VALID,230.054,VALID,29.016,VALID,6.0,VALID,1.258,
2011-11-06, 00:40:04,VALID,1007.173,VALID,0.0,VALID,68.319,VALID,220.749,VALID,28.938,VALID,36.0,VALID,0.995,
2011-11-06, 00:41:04,VALID,1007.162,VALID,0.0,VALID,68.411,VALID,209.65,VALID,28.859,VALID,25.0,VALID,0.839,
2011-11-06, 00:42:04,VALID,1007.166,VALID,0.0,VALID,69.951,VALID,205.501,VALID,28.801,VALID,30.0,VALID,0.432,
2011-11-06, 00:43:04,VALID,1007.14,VALID,0.0,VALID,70.752,VALID,203.596,VALID,28.801,VALID,13.0,VALID,0.414,
2011-11-06, 00:44:04,VALID,1007.122,VALID,0.0,VALID,69.493,VALID,201.129,VALID,28.779,VALID,20.0,VALID,0.565,
2011-11-06, 00:45:04,VALID,1007.146,VALID,0.0,VALID,69.738,VALID,201.69,VALID,28.76,VALID,355.0,VALID,0.855,
2011-11-06, 00:46:04,VALID,1007.106,VALID,0.0,VALID,69.638,VALID,199.223,VALID,28.742,VALID,343.0,VALID,0.72,
2011-11-06, 00:47:04,VALID,1007.095,VALID,0.0,VALID,71.247,VALID,190.815,VALID,28.723,VALID,354.0,VALID,0.702,
2011-11-06, 00:48:04,VALID,1007.073,VALID,0.0,VALID,73.169,VALID,183.191,VALID,28.703,VALID,347.0,VALID,0.695,
2011-11-06, 00:49:04,VALID,1007.081,VALID,0.0,VALID,71.583,VALID,180.276,VALID,28.664,VALID,344.0,VALID,0.67,
2011-11-06, 00:50:04,VALID,1007.091,VALID,0.0,VALID,70.866,VALID,181.734,VALID,28.604,VALID,344.0,VALID,0.751,
2011-11-06, 00:51:04,VALID,1007.095,VALID,0.0,VALID,68.891,VALID,188.236,VALID,28.586,VALID,344.0,VALID,0.355,
2011-11-06, 00:52:04,VALID,1007.094,VALID,0.0,VALID,69.57,VALID,202.923,VALID,28.584,VALID,344.0,VALID,0.498,
2011-11-06, 00:53:04,VALID,1007.105,VALID,0.0,VALID,71.308,VALID,242.386,VALID,28.584,VALID,344.0,VALID,0.222,
2011-11-06, 00:54:04,VALID,1007.073,VALID,0.0,VALID,70.088,VALID,229.942,VALID,28.684,VALID,9.0,VALID,0.759,
2011-11-06, 00:55:04,VALID,1007.089,VALID,0.0,VALID,69.211,VALID,238.462,VALID,28.662,VALID,30.0,VALID,0.628,
2011-11-06, 00:56:04,VALID,1007.061,VALID,0.0,VALID,68.731,VALID,244.853,VALID,28.682,VALID,20.0,VALID,0.754,
2011-11-06, 00:57:04,VALID,1007.06,VALID,0.0,VALID,68.594,VALID,263.015,VALID,28.742,VALID,12.0,VALID,0.375,
2011-11-06, 00:58:04,VALID,1007.055,VALID,0.0,VALID,67.808,VALID,288.464,VALID,28.781,VALID,12.0,VALID,0.455,
2011-11-06, 00:59:04,VALID,1007.077,VALID,0.0,VALID,67.724,VALID,293.285,VALID,28.859,VALID,12.0,VALID,0.234,
2011-11-06, 01:00:04,VALID,1007.048,VALID,0.0,VALID,68.502,VALID,257.634,VALID,28.938,VALID,12.0,VALID,0.169,
2011-11-06, 01:01:04,VALID,1007.075,VALID,0.0,VALID,68.174,VALID,257.521,VALID,28.994,VALID,12.0,VALID,0.538,
2011-11-06, 01:02:04,VALID,1007.057,VALID,0.0,VALID,68.609,VALID,265.818,VALID,29.033,VALID,12.0,VALID,0.126,
2011-11-06, 01:03:04,VALID,1007.04,VALID,0.0,VALID,69.013,VALID,281.626,VALID,29.091,VALID,12.0,VALID,0.525,
2011-11-06, 01:04:04,VALID,1007.024,VALID,0.0,VALID,67.45,VALID,288.464,VALID,29.133,VALID,12.0,VALID,0.249,
2011-11-06, 01:05:04,VALID,1007.048,VALID,0.0,VALID,68.998,VALID,280.168,VALID,29.15,VALID,12.0,VALID,0.347,
2011-11-06, 01:06:04,VALID,1007.059,VALID,0.0,VALID,67.427,VALID,279.944,VALID,29.23,VALID,12.0,VALID,0.005,
2011-11-06, 01:07:04,VALID,1007.025,VALID,0.0,VALID,67.671,VALID,263.463,VALID,29.267,VALID,12.0,VALID,0.535,
2011-11-06, 01:08:04,VALID,1007.061,VALID,0.0,VALID,68.365,VALID,243.732,VALID,29.267,VALID,9.0,VALID,0.534,
2011-11-06, 01:09:04,VALID,1007.026,VALID,0.0,VALID,69.524,VALID,261.558,VALID,29.228,VALID,20.0,VALID,0.964,
2011-11-06, 01:10:04,VALID,1007.038,VALID,0.0,VALID,68.495,VALID,258.867,VALID,29.13,VALID,45.0,VALID,0.629,
2011-11-06, 01:11:04,VALID,1007.039,VALID,0.0,VALID,67.633,VALID,252.925,VALID,29.094,VALID,54.0,VALID,0.454,
2011-11-06, 01:12:04,VALID,1007.046,VALID,0.0,VALID,68.441,VALID,260.548,VALID,29.072,VALID,54.0,VALID,0.507,
2011-11-06, 01:13:04,VALID,1007.086,VALID,0.0,VALID,70.157,VALID,269.517,VALID,29.091,VALID,53.0,VALID,0.318,
2011-11-06, 01:14:04,VALID,1007.069,VALID,0.0,VALID,71.758,VALID,277.59,VALID,29.172,VALID,53.0,VALID,0.107,
2011-11-06, 01:15:04,VALID,1007.047,VALID,0.0,VALID,69.844,VALID,284.092,VALID,29.25,VALID,53.0,VALID,0.358,
2011-11-06, 01:16:04,VALID,1007.058,VALID,0.0,VALID,70.645,VALID,285.549,VALID,29.267,VALID,41.0,VALID,0.657,
2011-11-06, 01:17:04,VALID,1007.069,VALID,0.0,VALID,67.488,VALID,280.729,VALID,29.25,VALID,16.0,VALID,0.496,
2011-11-06, 01:18:04,VALID,1007.024,VALID,0.0,VALID,67.13,VALID,281.962,VALID,29.25,VALID,360.0,VALID,0.716,
2011-11-06, 01:19:04,VALID,1007.038,VALID,0.0,VALID,67.587,VALID,276.468,VALID,29.169,VALID,338.0,VALID,0.834,
2011-11-06, 01:20:04,VALID,1007.065,VALID,0.0,VALID,68.25,VALID,261.67,VALID,29.172,VALID,353.0,VALID,0.74,
2011-11-06, 01:21:04,VALID,1007.065,VALID,0.0,VALID,68.25,VALID,248.44,VALID,29.113,VALID,353.0,VALID,0.713,
2011-11-06, 01:22:04,VALID,1007.073,VALID,0.0,VALID,66.199,VALID,245.301,VALID,29.055,VALID,14.0,VALID,0.87,
2011-11-06, 01:23:04,VALID,1007.083,VALID,0.0,VALID,68.586,VALID,234.763,VALID,29.035,VALID,15.0,VALID,0.66,
2011-11-06, 01:24:04,VALID,1007.041,VALID,0.0,VALID,67.305,VALID,256.961,VALID,29.016,VALID,15.0,VALID,0.446,
2011-11-06, 01:25:04,VALID,1007.041,VALID,0.0,VALID,67.244,VALID,254.943,VALID,28.996,VALID,57.0,VALID,0.923,
2011-11-06, 01:26:04,VALID,1007.019,VALID,0.0,VALID,68.807,VALID,262.903,VALID,28.938,VALID,59.0,VALID,0.622,
2011-11-06, 01:27:04,VALID,1007.033,VALID,0.0,VALID,67.839,VALID,271.199,VALID,28.935,VALID,58.0,VALID,0.617,
2011-11-06, 01:28:04,VALID,1007.013,VALID,0.0,VALID,68.655,VALID,239.584,VALID,28.955,VALID,71.0,VALID,0.288,
2011-11-06, 01:29:04,VALID,1006.991,VALID,0.0,VALID,69.127,VALID,240.48,VALID,28.994,VALID,347.0,VALID,0.601,
2011-11-06, 01:30:04,VALID,1006.99,VALID,0.0,VALID,69.318,VALID,236.444,VALID,29.013,VALID,355.0,VALID,0.697,
2011-11-06, 01:31:04,VALID,1006.998,VALID,0.0,VALID,69.455,VALID,232.296,VALID,29.013,VALID,356.0,VALID,0.477,
2011-11-06, 01:32:04,VALID,1007.038,VALID,0.0,VALID,69.364,VALID,229.045,VALID,29.013,VALID,356.0,VALID,0.277,
2011-11-06, 01:33:04,VALID,1007.019,VALID,0.0,VALID,69.249,VALID,247.992,VALID,29.091,VALID,356.0,VALID,0.198,
2011-11-06, 01:34:04,VALID,1006.999,VALID,0.0,VALID,67.846,VALID,264.024,VALID,29.169,VALID,356.0,VALID,0.581,
2011-11-06, 01:35:04,VALID,1007.039,VALID,0.0,VALID,67.137,VALID,266.939,VALID,29.208,VALID,1.0,VALID,0.421,
2011-11-06, 01:36:04,VALID,1007.026,VALID,0.0,VALID,67.061,VALID,269.517,VALID,29.228,VALID,1.0,VALID,0.686,
2011-11-06, 01:37:04,VALID,1007.023,VALID,0.0,VALID,68.167,VALID,268.172,VALID,29.228,VALID,1.0,VALID,0.316,
2011-11-06, 01:38:04,VALID,1007.053,VALID,0.0,VALID,68.769,VALID,262.118,VALID,29.267,VALID,360.0,VALID,0.302,
2011-11-06, 01:39:04,VALID,1007.029,VALID,0.0,VALID,68.548,VALID,259.315,VALID,29.308,VALID,360.0,VALID,0.3,
2011-11-06, 01:40:04,VALID,1007.031,VALID,0.0,VALID,67.694,VALID,239.808,VALID,29.308,VALID,17.0,VALID,0.571,
2011-11-06, 01:41:04,VALID,1007.044,VALID,0.0,VALID,67.457,VALID,243.844,VALID,29.228,VALID,39.0,VALID,0.8,
2011-11-06, 01:42:04,VALID,1007.008,VALID,0.0,VALID,68.304,VALID,229.493,VALID,29.23,VALID,39.0,VALID,0.508,
2011-11-06, 01:43:04,VALID,1007.023,VALID,0.0,VALID,70.721,VALID,232.184,VALID,29.211,VALID,39.0,VALID,0.695,
2011-11-06, 01:44:04,VALID,1007.022,VALID,0.0,VALID,70.058,VALID,230.951,VALID,29.208,VALID,39.0,VALID,0.284,
2011-11-06, 01:45:04,VALID,1007.016,VALID,0.0,VALID,68.067,VALID,230.839,VALID,29.25,VALID,345.0,VALID,0.667,
2011-11-06, 01:46:04,VALID,1007.006,VALID,0.0,VALID,67.053,VALID,244.18,VALID,29.23,VALID,342.0,VALID,0.477,
2011-11-06, 01:47:04,VALID,1007.007,VALID,0.0,VALID,68.266,VALID,270.302,VALID,29.269,VALID,342.0,VALID,0.079,
2011-11-06, 01:48:04,VALID,1006.996,VALID,0.0,VALID,67.358,VALID,266.266,VALID,29.328,VALID,342.0,VALID,0.015,
2011-11-06, 01:49:04,VALID,1006.993,VALID,0.0,VALID,68.929,VALID,268.621,VALID,29.386,VALID,342.0,VALID,0.041,
2011-11-06, 01:50:04,VALID,1006.992,VALID,0.0,VALID,66.039,VALID,263.8,VALID,29.484,VALID,342.0,VALID,0.05,
2011-11-06, 01:51:04,VALID,1007.007,VALID,0.0,VALID,67.175,VALID,252.476,VALID,29.582,VALID,190.0,VALID,0.459,
2011-11-06, 01:52:04,VALID,1006.986,VALID,0.0,VALID,63.088,VALID,236.893,VALID,29.582,VALID,287.0,VALID,0.146,
2011-11-06, 01:53:04,VALID,1006.972,VALID,0.0,VALID,64.476,VALID,256.176,VALID,29.638,VALID,288.0,VALID,0.339,
2011-11-06, 01:54:04,VALID,1006.969,VALID,0.0,VALID,64.857,VALID,250.01,VALID,29.718,VALID,204.0,VALID,0.767,
2011-11-06, 01:55:04,VALID,1006.936,VALID,0.0,VALID,64.644,VALID,246.422,VALID,29.738,VALID,201.0,VALID,0.342,
2011-11-06, 01:56:04,VALID,1006.964,VALID,0.0,VALID,65.254,VALID,252.14,VALID,29.796,VALID,206.0,VALID,0.019,
2011-11-06, 01:57:04,VALID,1006.983,VALID,0.0,VALID,64.987,VALID,250.346,VALID,29.853,VALID,268.0,VALID,0.524,
2011-11-06, 01:58:04,VALID,1006.98,VALID,0.0,VALID,64.316,VALID,247.992,VALID,29.894,VALID,298.0,VALID,0.463,
2011-11-06, 01:59:04,VALID,1007.004,VALID,0.0,VALID,64.941,VALID,247.656,VALID,29.855,VALID,278.0,VALID,0.843,
2011-11-06, 02:00:04,VALID,1006.991,VALID,0.0,VALID,63.446,VALID,246.983,VALID,29.755,VALID,259.0,VALID,0.967,
2011-11-06, 02:01:04,VALID,1006.998,VALID,0.0,VALID,64.735,VALID,244.853,VALID,29.696,VALID,227.0,VALID,0.939,
2011-11-06, 02:02:04,VALID,1006.967,VALID,0.0,VALID,64.544,VALID,243.732,VALID,29.699,VALID,277.0,VALID,1.195,
2011-11-06, 02:03:04,VALID,1006.996,VALID,0.0,VALID,62.653,VALID,242.386,VALID,29.679,VALID,249.0,VALID,0.738,
2011-11-06, 02:04:04,VALID,1006.985,VALID,0.0,VALID,63.652,VALID,239.247,VALID,29.64,VALID,201.0,VALID,1.025,
2011-11-06, 02:05:04,VALID,1006.987,VALID,0.0,VALID,65.627,VALID,235.435,VALID,29.621,VALID,290.0,VALID,1.055,
2011-11-06, 02:06:04,VALID,1006.971,VALID,0.0,VALID,64.91,VALID,231.511,VALID,29.599,VALID,223.0,VALID,0.808,
2011-11-06, 02:07:04,VALID,1006.98,VALID,0.0,VALID,66.07,VALID,226.242,VALID,29.599,VALID,340.0,VALID,0.253,
2011-11-06, 02:08:04,VALID,1006.961,VALID,0.0,VALID,65.505,VALID,221.421,VALID,29.599,VALID,285.0,VALID,1.36,
2011-11-06, 02:09:04,VALID,1006.968,VALID,0.0,VALID,64.163,VALID,218.955,VALID,29.521,VALID,279.0,VALID,1.461,
2011-11-06, 02:10:04,VALID,1006.977,VALID,0.0,VALID,65.879,VALID,213.461,VALID,29.423,VALID,234.0,VALID,0.382,
2011-11-06, 02:11:04,VALID,1006.983,VALID,0.0,VALID,64.445,VALID,210.883,VALID,29.425,VALID,315.0,VALID,1.139,
2011-11-06, 02:12:04,VALID,1006.992,VALID,0.0,VALID,64.804,VALID,207.744,VALID,29.384,VALID,255.0,VALID,0.985,
2011-11-06, 02:13:04,VALID,1007.028,VALID,0.0,VALID,66.214,VALID,204.492,VALID,29.365,VALID,289.0,VALID,0.945,
2011-11-06, 02:14:04,VALID,1007.004,VALID,0.0,VALID,66.153,VALID,201.129,VALID,29.345,VALID,302.0,VALID,0.487,
2011-11-06, 02:15:04,VALID,1007.028,VALID,0.0,VALID,64.506,VALID,182.07,VALID,29.269,VALID,315.0,VALID,1.998,
2011-11-06, 02:16:04,VALID,1007.021,VALID,0.0,VALID,67.091,VALID,190.03,VALID,29.169,VALID,330.0,VALID,0.882,
2011-11-06, 02:17:04,VALID,1007.013,VALID,0.0,VALID,65.673,VALID,191.151,VALID,29.13,VALID,291.0,VALID,1.455,
2011-11-06, 02:18:04,VALID,1007.025,VALID,0.0,VALID,65.764,VALID,187.003,VALID,29.033,VALID,265.0,VALID,0.725,
2011-11-06, 02:19:04,VALID,1007.012,VALID,0.0,VALID,67.099,VALID,167.72,VALID,29.035,VALID,321.0,VALID,1.645,
2011-11-06, 02:20:04,VALID,1007.034,VALID,0.0,VALID,67.145,VALID,173.774,VALID,28.994,VALID,322.0,VALID,1.004,
2011-11-06, 02:21:04,VALID,1007.032,VALID,0.0,VALID,67.717,VALID,167.271,VALID,28.955,VALID,303.0,VALID,0.764,
2011-11-06, 02:22:04,VALID,1007.038,VALID,0.0,VALID,67.13,VALID,160.096,VALID,28.957,VALID,276.0,VALID,1.018,
2011-11-06, 02:23:04,VALID,1007.051,VALID,0.0,VALID,68.029,VALID,155.051,VALID,28.938,VALID,195.0,VALID,0.446,
2011-11-06, 02:24:04,VALID,1007.04,VALID,0.0,VALID,69.425,VALID,152.585,VALID,28.935,VALID,261.0,VALID,0.38,
2011-11-06, 02:25:04,VALID,1007.028,VALID,0.0,VALID,68.632,VALID,149.894,VALID,28.977,VALID,271.0,VALID,0.395,
2011-11-06, 02:26:04,VALID,1007.057,VALID,0.0,VALID,66.893,VALID,145.746,VALID,28.996,VALID,284.0,VALID,0.775,
2011-11-06, 02:27:04,VALID,1007.023,VALID,0.0,VALID,65.269,VALID,142.719,VALID,29.013,VALID,234.0,VALID,0.667,
2011-11-06, 02:28:04,VALID,1007.055,VALID,0.0,VALID,66.733,VALID,139.58,VALID,28.974,VALID,274.0,VALID,1.07,
2011-11-06, 02:29:04,VALID,1007.045,VALID,0.0,VALID,66.725,VALID,136.44,VALID,28.996,VALID,268.0,VALID,0.857,
2011-11-06, 02:30:04,VALID,1007.052,VALID,0.0,VALID,68.51,VALID,133.525,VALID,29.016,VALID,250.0,VALID,0.126,
2011-11-06, 02:31:04,VALID,1007.027,VALID,0.0,VALID,66.474,VALID,130.611,VALID,29.035,VALID,263.0,VALID,0.68,
2011-11-06, 02:32:04,VALID,1007.015,VALID,0.0,VALID,68.434,VALID,127.92,VALID,29.013,VALID,281.0,VALID,0.523,
2011-11-06, 02:33:04,VALID,1007.003,VALID,0.0,VALID,67.77,VALID,125.117,VALID,28.974,VALID,244.0,VALID,0.519,
2011-11-06, 02:34:04,VALID,1007.026,VALID,0.0,VALID,67.801,VALID,122.426,VALID,28.916,VALID,200.0,VALID,0.265,
2011-11-06, 02:35:04,VALID,1006.987,VALID,0.0,VALID,67.511,VALID,119.736,VALID,28.935,VALID,200.0,VALID,0.285,
2011-11-06, 02:36:04,VALID,1006.989,VALID,0.0,VALID,66.916,VALID,116.933,VALID,28.898,VALID,222.0,VALID,0.691,
2011-11-06, 02:37:04,VALID,1007.012,VALID,0.0,VALID,69.066,VALID,114.13,VALID,28.918,VALID,339.0,VALID,0.04,
2011-11-06, 02:38:04,VALID,1007.021,VALID,0.0,VALID,68.441,VALID,111.552,VALID,28.918,VALID,332.0,VALID,0.391,
2011-11-06, 02:39:04,VALID,1007.0,VALID,0.0,VALID,69.074,VALID,108.861,VALID,28.898,VALID,332.0,VALID,0.407,
2011-11-06, 02:40:04,VALID,1007.004,VALID,0.0,VALID,68.899,VALID,106.058,VALID,28.898,VALID,332.0,VALID,0.17,
2011-11-06, 02:41:04,VALID,1007.043,VALID,0.0,VALID,68.487,VALID,103.367,VALID,28.877,VALID,301.0,VALID,0.112,
2011-11-06, 02:42:04,VALID,1007.07,VALID,0.0,VALID,67.77,VALID,100.565,VALID,28.859,VALID,288.0,VALID,0.767,
2011-11-06, 02:43:04,VALID,1007.094,VALID,0.0,VALID,68.99,VALID,97.874,VALID,28.818,VALID,273.0,VALID,0.218,
2011-11-06, 02:44:04,VALID,1007.089,VALID,0.0,VALID,70.264,VALID,95.071,VALID,28.781,VALID,307.0,VALID,0.469,
2011-11-06, 02:45:04,VALID,1007.169,VALID,0.0,VALID,71.362,VALID,92.156,VALID,28.762,VALID,276.0,VALID,0.415,
2011-11-06, 02:46:04,VALID,1007.161,VALID,0.0,VALID,69.12,VALID,89.578,VALID,28.701,VALID,326.0,VALID,1.016,
2011-11-06, 02:47:04,VALID,1007.176,VALID,0.0,VALID,70.111,VALID,86.663,VALID,28.664,VALID,306.0,VALID,1.065,
2011-11-06, 02:48:04,VALID,1007.201,VALID,0.0,VALID,70.561,VALID,84.084,VALID,28.567,VALID,307.0,VALID,0.766,
2011-11-06, 02:49:04,VALID,1007.216,VALID,0.0,VALID,70.698,VALID,81.505,VALID,28.528,VALID,295.0,VALID,1.156,
2011-11-06, 02:50:04,VALID,1007.225,VALID,0.0,VALID,70.241,VALID,79.039,VALID,28.45,VALID,294.0,VALID,2.033,
2011-11-06, 02:51:04,VALID,1007.218,VALID,0.0,VALID,71.194,VALID,76.348,VALID,28.391,VALID,231.0,VALID,0.487,
2011-11-06, 02:52:04,VALID,1007.234,VALID,0.0,VALID,71.255,VALID,73.77,VALID,28.35,VALID,313.0,VALID,1.051,
2011-11-06, 02:53:04,VALID,1007.262,VALID,0.0,VALID,71.598,VALID,71.079,VALID,28.311,VALID,295.0,VALID,0.578,
2011-11-06, 02:54:04,VALID,1007.259,VALID,0.0,VALID,71.644,VALID,68.725,VALID,28.291,VALID,325.0,VALID,0.296,
2011-11-06, 02:55:04,VALID,1007.272,VALID,0.0,VALID,71.659,VALID,66.37,VALID,28.272,VALID,324.0,VALID,0.703,
2011-11-06, 02:56:04,VALID,1007.31,VALID,0.0,VALID,71.392,VALID,64.24,VALID,28.252,VALID,290.0,VALID,0.855,
2011-11-06, 02:57:04,VALID,1007.32,VALID,0.0,VALID,72.262,VALID,61.774,VALID,28.235,VALID,305.0,VALID,0.985,
2011-11-06, 02:58:04,VALID,1007.347,VALID,0.0,VALID,72.597,VALID,59.756,VALID,28.194,VALID,301.0,VALID,0.601,
2011-11-06, 02:59:04,VALID,1007.333,VALID,0.0,VALID,72.567,VALID,57.626,VALID,28.155,VALID,345.0,VALID,1.089,
2011-11-06, 03:00:04,VALID,1007.38,VALID,0.0,VALID,72.917,VALID,55.383,VALID,28.101,VALID,254.0,VALID,0.482,
2011-11-06, 03:01:04,VALID,1007.341,VALID,0.0,VALID,72.475,VALID,53.365,VALID,28.059,VALID,281.0,VALID,1.064,
2011-11-06, 03:02:04,VALID,1007.394,VALID,0.0,VALID,72.338,VALID,51.347,VALID,28.02,VALID,302.0,VALID,1.076,
2011-11-06, 03:03:04,VALID,1007.401,VALID,0.0,VALID,73.245,VALID,49.329,VALID,27.984,VALID,254.0,VALID,0.332,
2011-11-06, 03:04:04,VALID,1007.405,VALID,0.0,VALID,73.283,VALID,47.311,VALID,27.942,VALID,288.0,VALID,0.683,
2011-11-06, 03:05:04,VALID,1007.411,VALID,0.0,VALID,73.001,VALID,45.405,VALID,27.884,VALID,261.0,VALID,0.391,
2011-11-06, 03:06:04,VALID,1007.433,VALID,0.0,VALID,73.009,VALID,43.499,VALID,27.866,VALID,293.0,VALID,0.929,
2011-11-06, 03:07:04,VALID,1007.427,VALID,0.0,VALID,72.124,VALID,41.706,VALID,27.806,VALID,280.0,VALID,1.276,
2011-11-06, 03:08:04,VALID,1007.442,VALID,0.0,VALID,71.972,VALID,39.912,VALID,27.769,VALID,307.0,VALID,0.804,
2011-11-06, 03:09:04,VALID,1007.479,VALID,0.0,VALID,72.475,VALID,38.118,VALID,27.769,VALID,306.0,VALID,0.458,
2011-11-06, 03:10:04,VALID,1007.486,VALID,0.0,VALID,72.269,VALID,36.324,VALID,27.71,VALID,289.0,VALID,0.917,
2011-11-06, 03:11:04,VALID,1007.505,VALID,0.0,VALID,72.673,VALID,34.643,VALID,27.691,VALID,281.0,VALID,0.853,
2011-11-06, 03:12:04,VALID,1007.548,VALID,0.0,VALID,72.811,VALID,33.073,VALID,27.65,VALID,275.0,VALID,0.479,
2011-11-06, 03:13:04,VALID,1007.558,VALID,0.0,VALID,73.558,VALID,31.391,VALID,27.63,VALID,283.0,VALID,0.191,
2011-11-06, 03:14:04,VALID,1007.544,VALID,0.0,VALID,73.772,VALID,29.822,VALID,27.591,VALID,283.0,VALID,0.092,
2011-11-06, 03:15:04,VALID,1007.562,VALID,0.0,VALID,73.093,VALID,28.252,VALID,27.572,VALID,261.0,VALID,0.483,
2011-11-06, 03:16:04,VALID,1007.563,VALID,0.0,VALID,73.123,VALID,26.795,VALID,27.511,VALID,287.0,VALID,0.623,
2011-11-06, 03:17:04,VALID,1007.538,VALID,0.0,VALID,73.413,VALID,25.337,VALID,27.494,VALID,287.0,VALID,0.271,
2011-11-06, 03:18:04,VALID,1007.546,VALID,0.0,VALID,73.878,VALID,23.768,VALID,27.453,VALID,318.0,VALID,0.637,
2011-11-06, 03:19:04,VALID,1007.567,VALID,0.0,VALID,73.276,VALID,22.31,VALID,27.414,VALID,273.0,VALID,0.571,
2011-11-06, 03:20:04,VALID,1007.575,VALID,0.0,VALID,72.673,VALID,20.853,VALID,27.375,VALID,256.0,VALID,0.965,
2011-11-06, 03:21:04,VALID,1007.578,VALID,0.0,VALID,73.543,VALID,19.508,VALID,27.355,VALID,267.0,VALID,0.157,
2011-11-06, 03:22:04,VALID,1007.575,VALID,0.0,VALID,73.314,VALID,18.162,VALID,27.336,VALID,281.0,VALID,0.587,
2011-11-06, 03:23:04,VALID,1007.584,VALID,0.0,VALID,75.053,VALID,16.817,VALID,27.297,VALID,267.0,VALID,0.321,
2011-11-06, 03:24:04,VALID,1007.612,VALID,0.0,VALID,73.886,VALID,15.584,VALID,27.258,VALID,278.0,VALID,0.014,
2011-11-06, 03:25:04,VALID,1007.621,VALID,0.0,VALID,74.115,VALID,14.126,VALID,27.24,VALID,252.0,VALID,0.527,
2011-11-06, 03:26:04,VALID,1007.611,VALID,0.0,VALID,73.657,VALID,12.893,VALID,27.223,VALID,284.0,VALID,0.356,
2011-11-06, 03:27:04,VALID,1007.65,VALID,0.0,VALID,73.947,VALID,11.772,VALID,27.182,VALID,267.0,VALID,0.336,
2011-11-06, 03:28:04,VALID,1007.669,VALID,0.0,VALID,73.718,VALID,10.651,VALID,27.164,VALID,3.0,VALID,0.592,
2011-11-06, 03:29:04,VALID,1007.67,VALID,0.0,VALID,74.412,VALID,9.53,VALID,27.145,VALID,287.0,VALID,0.18,
2011-11-06, 03:30:04,VALID,1007.69,VALID,0.0,VALID,73.657,VALID,8.521,VALID,27.084,VALID,282.0,VALID,0.857,
2011-11-06, 03:31:04,VALID,1007.704,VALID,0.0,VALID,73.566,VALID,7.512,VALID,27.086,VALID,248.0,VALID,0.679,
2011-11-06, 03:32:04,VALID,1007.727,VALID,0.0,VALID,73.749,VALID,6.615,VALID,27.067,VALID,295.0,VALID,0.989,
2011-11-06, 03:33:04,VALID,1007.757,VALID,0.0,VALID,74.366,VALID,5.718,VALID,27.026,VALID,307.0,VALID,0.186,